Regional Weather Roundup
Issued by NWS

Home | Current Version | Previous Version | Text Only | Print | Product List | Glossary On
Versions: 1 2 3 4 5 6 7 8 9 10 11 12 13 14 15 16 17 18 19 20 21 22 23 24 25 26 27 28 29 30 31 32 33 34 35 36 37 38 39 40 41 42 43 44 45 46 47 48 49 50
000
ASUS43 KMKX 181711
RWRWI

WISCONSIN REGIONAL WEATHER ROUNDUP
NATIONAL WEATHER SERVICE MILWAUKEE/SULLIVAN WI
1200 PM CDT WED OCT 18 2017

NOTE: "FAIR" INDICATES FEW OR NO CLOUDS BELOW 12,000 FEET WITH NO
SIGNIFICANT WEATHER AND/OR OBSTRUCTIONS TO VISIBILITY.

WIZ001-002-006>008-014>016-023>028-181800-
NORTHWEST WISCONSIN

CITY           SKY/WX    TMP DP  RH WIND       PRES   REMARKS
SUPERIOR ARPT  CLOUDY    64  45  50 SW14G23   29.71S
ASHLAND        PTSUNNY   67  46  47 SW14      29.72R
HAYWARD        MOSUNNY   65  45  48 SW10G18   29.78R
SIREN          MOSUNNY   64  45  50 SW15      29.79F
CUMBERLAND     CLOUDY    61  46  59 S13       29.80R
RICE LAKE      CLOUDY    65  47  51 S13       29.82R
CHETEK         CLOUDY    64  50  60 S12       29.81S
LADYSMITH      SUNNY     64  48  57 S20       29.82F
EAU CLAIRE     CLOUDY    65  48  54 S12       29.83F
MENOMONIE      CLOUDY    65  48  53 S12       29.83F
NEW RICHMOND   CLOUDY    65  47  51 SW13      29.82R
OSCEOLA        MOSUNNY   63  48  57 SW9G16    29.84S
$$

WIZ003>005-009-010-017-018-181800-
NORTH CENTRAL WISCONSIN

CITY           SKY/WX    TMP DP  RH WIND       PRES   REMARKS
MANITOWISH WTR SUNNY     65  46  50 S14G24    29.79F
ARBOR VITAE    SUNNY     65  48  53 SW15G26   29.81F
WOODRUFF       SUNNY     65  48  53 SW15G26   29.81F
RHINELANDER    SUNNY     64  48  56 SW17G28   29.86F
EAGLE RIVER    SUNNY     65  44  45 SW15G23   29.83F
LAND O LAKES   SUNNY     67  44  44 SW13G21   29.83F
PHILLIPS       CLOUDY    65  48  54 SW15G22   29.80F
TOMAHAWK       SUNNY     64  47  54 S7        29.86F
MEDFORD        SUNNY     62  47  56 SW18G25   29.87F
MERRILL        SUNNY     65  48  54 SW9G17    29.89F
$$

WIZ029-030-035-036-043>047-181800-
CENTRAL WISCONSIN

CITY           SKY/WX    TMP DP  RH WIND       PRES   REMARKS
WAUSAU         SUNNY     63  47  55 S12G22    29.88F
MOSINEE        MOSUNNY   63  48  59 S13G18    29.91F
MARSHFIELD     SUNNY     65  46  50 S17G25    29.89F
STEVENS POINT  SUNNY     63  46  55 S14       29.93F
WAUPACA        SUNNY     67  47  48 S15       29.94F
WAUTOMA        SUNNY     66  47  50 S10G22    29.95
WISC RAPIDS    SUNNY     65  48  54 SW15      29.93F
CAMP DOUGLAS   MOSUNNY   66  48  52 S7G18     29.93F
$$

WIZ011>013-019>022-031-037>040-048>050-181800-
NORTHEAST WISCONSIN

CITY           SKY/WX    TMP DP  RH WIND       PRES   REMARKS
ANTIGO         SUNNY     63  48  57 S17       29.90F
SHAWANO        SUNNY     67  47  49 S8G17     29.92F
OCONTO         SUNNY     66  47  49 SW15G22   29.93F
STURGEON BAY   SUNNY     67  48  50 S16G25    29.94F
GREEN BAY      SUNNY     63  49  60 SW15G25   29.96F
MANITOWOC      SUNNY     64  49  57 SE15      29.99F
APPLETON       NOT AVBL
CLINTONVILLE   SUNNY     66  46  48 S14       29.93F
OSHKOSH        SUNNY     65  48  54 S16G22    29.97S
$$

WIZ032>034-041-042-053>061-181800-
SOUTHWEST WISCONSIN

CITY           SKY/WX    TMP DP  RH WIND       PRES   REMARKS
LA CROSSE      SUNNY     65  48  54 S15       29.90F
SPARTA         SUNNY     64  48  56 S14G21    29.92F
VIROQUA        SUNNY     65  48  55 S12       29.95F
BOSCOBEL       SUNNY     68  47  46 S13G20    29.97F
PRAIRIE DU CHI SUNNY     66  45  46 S8        29.97S
PLATTEVILLE    SUNNY     65  48  54 S16       30.02F
$$

WIZ056-057-062-063-064-067-068-181800-
SOUTH CENTRAL WISCONSIN

CITY           SKY/WX    TMP DP  RH WIND       PRES   REMARKS
REEDSBURG      SUNNY     64  47  54 S13       29.97F
BARABOO/DELLS  SUNNY     64  46  51 S16G22    29.97F
LONE ROCK      SUNNY     67  50  54 S10       29.98F
MINERAL POINT  SUNNY     64  46  52 S13G18    30.01F
MADISON        SUNNY     65  46  50 S12       30.01F
MIDDLETON      SUNNY     66  46  48 S12       30.02S
WATERTOWN      SUNNY     66  47  49 SW17      30.03S
MONROE         SUNNY     64  45  48 S20       30.04F
JANESVILLE     SUNNY     68  45  42 S15       30.05F
$$

WIZ051-052-058>065-066-070>072-181800-
SOUTHEAST WISCONSIN

CITY           SKY/WX    TMP DP  RH WIND       PRES   REMARKS
MILWAUKEE      SUNNY     68  45  43 S21G26    30.05F
WAUKESHA       SUNNY     64  45  48 S13G18    30.06F
MILWAUKEE/TIMM SUNNY     66  39  37 SW14G23   30.05R
RACINE         SUNNY     68  44  42 S16G28    30.08F
BURLINGTON     SUNNY     67  46  46 S14G22    30.06F
KENOSHA        SUNNY     67  42  40 SW16G25   30.08F
FOND DU LAC    SUNNY     67  43  41 SW16G24   29.99S
SHEBOYGAN      SUNNY     69  48  47 S20G28    30.00S
WEST BEND      SUNNY     68  43  40 SW17G25   30.01S
JUNEAU         SUNNY     65  46  51 S15G23    30.03S
$$

LSZ147-162-181800-
LAKE SUPERIOR

STATION/POSITION TIME  TEMP    WIND        PRES    WAVE
                       AIR SEA DIR/SP/G            HT/PER
                 (UTC) (F)     (DEG/KT/KT) (MB)    (FT/S)
W MID LAKE BUOY  1650   55 53              1005.2R   3/ 5
DEVILS ISLAND    1700   57     260/ 13/ 15 1005.1F
PORT WING        1636          210/ 16/ 26 1005.8F
SAXON HARBOR     1636   69     200/ 12/ 25 1005.8R
$$

LMZ867-665-643>646-181800-
LAKE MICHIGAN

STATION/POSITION TIME  TEMP    WIND        PRES    WAVE
                       AIR SEA DIR/SP/G            HT/PER
                 (UTC) (F)     (DEG/KT/KT) (MB)    (FT/S)
S GREEN BAY BUOY 1700   61 58  210/ 12/ 16 1013.7
N MID LAKE BUOY  1650   60 59  190/ 23/ 29 1014.3F   7/ 6
NORTHPORT PIER   1640   62     160/  7/ 15 1013.9F
KEWAUNEE LAKESHO 1648   58     170/ 17/ 21 1014.2F
SHEBOYGAN LAKESH 1700   56     180/ 22/ 25 1015.7F
PORT WASHINGTON  1640   63     200/  6/ 11 1017.9S
ATWATER BUOY     1509   57 53  180/ 12/ 14 1018.4F
MILWAUKEE LAKESH 1650   64     200/ 16/ 20   N/A
S MID LAKE BUOY  1650   59 61  190/ 21/ 25 1019.2F   5/ 6
KENOSHA   LAKESH 1700   59     170/ 13/ 20 1018.3
$$

TC  - TEMPERATURE IN CELSIUS
VSB - VISIBILITY IN STATUTE MILES
WCI - WIND CHILL INDEX
HX  - HEAT INDEX




USA.gov is the U.S. government's official web portal to all federal, state and local government web resources and services.